Theta_e
321 321 320 320 320 320 321 321 320 319 317 317 316 318 318 316 311 304 299 308 312 319 314 305 305 306 306 304 302 301 297 292 292 292 293 297 297 298 301 302 305 308 306 309 320
320 320 321 321 321 320 320 320 320 318 316 315 315 317 317 314 301 298 306 315 316 316 304 303 302 303 302 301 302 301 296 292 294 294 294 295 296 296 298 299 301 306 311 313 318
320 320 320 320 320 320 320 320 320 318 317 318 317 316 315 309 300 296 310 314 315 311 304 302 302 302 298 300 298 297 294 294 293 296 295 294 295 295 296 296 298 298 305 311 314
320 320 320 320 320 319 319 321 320 318 316 317 318 316 313 303 292 299 310 312 313 306 301 301 300 299 296 295 297 293 294 294 294 294 293 293 295 294 295 297 298 303 304 311 311
320 320 319 319 319 318 318 320 320 318 318 317 316 314 305 297 295 302 307 306 305 303 300 299 298 297 295 295 295 294 293 293 294 294 294 294 293 294 294 296 304 308 309 310 311
319 319 319 319 317 317 318 319 318 318 318 318 316 310 302 293 300 302 302 304 304 302 300 300 297 298 296 294 294 294 293 293 294 294 294 293 293 294 294 296 303 307 310 311 310
319 319 318 318 316 316 317 318 317 317 317 317 312 302 299 295 300 304 303 302 303 302 299 301 300 298 297 294 294 293 291 292 293 293 293 293 291 292 294 293 300 305 308 310 311
318 317 317 315 315 315 315 315 317 316 315 312 309 302 295 300 305 302 303 302 305 304 301 302 302 299 296 296 294 290 291 290 291 293 293 293 291 293 294 293 295 302 305 307 309
317 316 316 316 316 315 314 316 314 312 311 307 305 302 295 306 300 302 302 300 303 304 305 303 302 297 297 292 291 293 289 289 291 292 291 292 291 294 294 293 294 294 297 299 300
316 315 314 314 314 313 312 313 313 309 304 302 301 300 299 295 299 300 303 302 302 301 302 300 297 295 294 293 287 287 289 289 289 290 291 291 292 295 296 293 295 295 294 295 296
314 314 314 313 313 308 308 307 302 299 299 294 293 294 296 300 301 300 300 300 301 300 295 296 293 288 288 289 289 289 288 288 290 289 288 288 289 293 296 294 294 295 294 294 295
314 314 313 313 311 307 306 299 296 299 292 296 296 296 297 297 295 298 303 297 295 291 293 294 287 289 290 290 288 288 287 287 289 288 287 286 287 292 292 291 291 293 294 293 294
313 312 311 311 308 306 302 299 303 301 294 292 294 294 295 297 293 294 298 295 292 290 290 289 287 289 288 287 288 286 284 284 283 286 284 284 288 290 290 289 289 291 292 292 293
312 312 310 311 307 302 299 302 303 300 289 288 292 294 295 295 292 295 296 294 292 287 288 287 288 287 287 284 285 285 284 283 282 284 282 282 282 286 286 287 288 290 291 291 292
308 310 309 308 302 300 300 303 303 299 283 288 290 298 294 292 290 293 295 294 288 286 289 284 285 285 284 283 284 283 284 283 282 282 281 280 281 287 285 285 287 289 289 290 291
309 306 307 304 304 299 300 301 299 289 281 284 289 289 290 290 289 291 292 294 291 288 288 285 287 286 284 285 285 285 282 280 280 281 281 272 276 285 285 283 287 288 289 289 289
306 304 301 300 298 300 300 299 288 284 285 285 285 287 285 285 287 287 286 285 285 286 283 283 283 285 285 284 285 284 285 284 282 281 280 268 275 285 286 285 285 285 287 289 290
307 301 298 297 299 300 299 293 284 278 282 285 286 285 284 284 284 285 285 284 285 284 281 282 283 283 283 282 281 280 280 280 274 276 277 268 277 283 283 284 285 287 288 289 290
304 299 299 297 298 299 296 285 286 282 286 285 285 283 284 283 283 283 283 283 283 284 283 281 281 282 282 282 282 279 282 277 271 263 273 278 281 283 284 284 285 285 286 287 287
301 297 295 296 296 298 287 284 284 285 287 286 283 281 285 282 282 283 280 284 283 284 283 280 281 278 281 282 281 280 280 278 278 274 273 277 273 281 284 284 283 283 283 284 286
298 297 296 295 297 293 286 285 282 286 288 285 283 281 281 283 280 280 281 283 285 283 283 280 281 282 279 279 280 279 279 277 277 276 275 273 278 287 284 280 278 280 282 283 283
294 290 295 294 289 280 285 281 285 287 289 287 286 283 282 281 280 280 280 282 286 285 282 283 280 279 282 279 281 279 280 279 277 275 274 272 276 282 279 277 277 280 282 284 283
293 292 294 297 287 284 280 283 286 286 286 285 284 285 283 280 281 280 282 286 287 285 283 283 280 278 281 277 278 277 278 277 276 276 275 274 277 275 278 282 282 279 282 282 281
292 288 290 289 285 286 282 283 283 286 286 286 285 285 282 278 279 279 281 284 286 285 287 285 278 279 277 281 277 276 277 278 277 276 276 276 279 281 280 279 279 280 280 280 281
288 286 283 287 288 284 284 282 281 282 285 286 282 284 282 277 277 277 281 282 285 286 284 283 278 275 276 276 272 275 275 275 273 277 275 277 275 279 279 277 277 277 279 280 280
292 290 285 283 284 285 283 281 282 281 284 282 281 282 282 279 281 279 280 281 281 283 283 281 277 271 273 273 273 272 275 276 274 275 272 274 273 276 276 275 278 279 280 279 278
289 289 291 283 283 284 285 283 283 284 284 285 284 283 281 283 284 284 284 283 283 282 280 278 275 273 273 268 270 272 274 275 274 274 274 273 275 274 275 276 277 278 278 277 278
Wind_Speed
8 8 9 12 14 14 15 16 15 12 11 9 9 8 8 7 3 8 10 9 9 13 10 5 1 3 2 4 3 1 1 3 2 1 3 4 1 2 1 1 2 3 2 3 10
7 9 10 11 13 14 15 15 15 13 11 10 8 7 7 3 4 15 7 15 12 9 4 4 3 3 4 3 3 2 1 2 1 1 1 2 2 4 3 1 3 3 3 2 11
5 7 9 10 13 13 14 14 14 14 12 10 9 7 6 3 3 6 14 17 12 5 1 2 1 2 4 2 4 2 3 3 2 3 2 3 2 2 3 2 2 2 1 5 9
4 7 8 9 11 12 14 14 13 13 12 11 9 9 5 2 2 4 17 16 11 3 1 1 1 3 3 3 2 3 3 1 2 2 2 2 4 2 3 2 4 5 2 10 10
5 6 7 8 10 13 14 14 12 12 11 10 10 8 1 7 6 8 16 11 3 2 4 3 4 2 5 4 2 4 3 3 1 1 1 3 3 3 4 3 4 2 6 8 8
6 7 7 8 12 13 14 14 13 12 10 10 9 4 2 8 6 10 12 5 7 4 5 5 3 2 7 4 3 3 2 2 3 4 2 4 1 3 4 3 1 2 4 7 8
4 5 6 9 12 13 14 14 12 9 7 8 9 3 16 7 5 11 11 5 5 4 3 3 2 1 2 4 2 3 4 3 4 5 1 3 5 6 2 2 3 4 5 5 6
4 6 8 10 11 13 15 14 10 7 6 5 4 2 6 2 5 10 12 3 7 4 3 4 3 7 4 3 2 1 1 2 3 8 2 4 3 1 2 3 5 5 5 5 4
6 6 6 8 10 12 12 11 8 4 6 5 3 3 4 6 6 8 7 6 7 2 5 3 4 5 3 3 2 5 1 4 2 6 5 4 5 2 1 4 8 7 6 5 4
7 7 8 9 11 12 9 3 7 6 6 1 4 1 7 8 6 7 6 5 4 4 2 7 5 5 6 7 3 5 4 3 5 8 7 7 13 10 8 8 10 7 6 5 5
7 8 9 10 11 10 3 1 2 7 13 7 2 4 4 10 4 10 6 5 4 7 6 6 10 8 8 6 3 3 3 6 3 6 9 5 15 18 11 10 12 10 7 7 6
11 11 12 7 8 7 5 7 3 2 10 6 3 3 2 4 5 19 11 4 8 6 5 6 7 6 4 5 2 5 4 5 5 5 7 9 22 16 7 5 8 8 6 5 3
12 11 14 6 3 7 9 5 3 2 4 6 4 4 5 6 5 12 11 3 6 6 9 7 2 6 2 6 5 6 4 5 5 12 1 16 8 3 3 3 3 1 2 1 2
12 11 14 3 2 1 5 3 2 1 6 14 9 6 4 3 4 4 6 3 5 3 4 7 5 3 5 5 5 2 4 3 4 7 4 8 5 2 6 9 10 11 11 7 4
14 10 10 13 5 4 3 4 2 3 5 12 7 4 5 7 6 10 4 5 6 5 2 4 7 7 7 5 4 2 2 3 1 2 2 5 3 2 3 6 10 12 12 12 5
11 12 5 4 4 2 5 2 2 6 5 5 5 9 4 7 5 7 7 8 1 3 10 4 2 4 5 3 3 4 1 2 2 1 1 2 4 3 5 5 9 13 15 13 11
9 15 7 1 2 4 2 1 6 7 2 6 5 6 2 8 7 10 6 8 6 3 6 1 2 2 3 2 2 4 3 2 1 1 1 2 5 6 6 7 7 11 13 12 10
5 5 5 3 3 3 1 5 9 1 3 1 3 3 5 9 4 7 2 4 7 4 3 4 0 4 6 4 1 4 3 1 5 3 4 1 6 3 6 5 5 5 9 10 10
2 2 2 6 4 2 4 7 4 5 1 1 1 4 4 2 3 4 6 3 4 6 4 4 1 2 4 2 3 2 2 2 6 2 3 3 6 3 4 6 10 14 16 14 15
2 1 1 7 3 1 7 4 2 1 0 1 2 1 1 5 2 4 2 1 1 2 0 2 4 1 1 1 6 2 4 1 1 3 5 3 5 7 3 3 7 20 17 17 17
2 2 1 4 1 6 5 3 3 3 1 1 2 2 0 2 2 1 0 2 2 1 1 3 1 2 2 4 3 2 2 3 2 2 4 4 4 4 1 6 8 13 13 12 13
1 2 3 2 6 1 3 4 3 3 2 1 1 2 2 2 1 1 1 2 1 1 1 1 1 4 1 3 1 1 2 3 3 3 1 3 8 6 6 3 4 10 11 12 10
2 2 1 2 4 2 1 1 2 4 3 4 3 0 2 3 0 2 2 2 3 3 2 3 1 4 3 3 1 4 4 2 2 0 8 7 6 3 3 8 6 6 10 12 12
1 3 5 6 2 5 4 2 3 1 2 2 3 3 3 1 1 3 3 2 2 2 3 2 2 5 7 3 2 5 7 8 6 5 7 12 16 16 14 13 13 15 14 12 10
4 1 1 1 2 3 2 4 3 4 1 3 0 5 6 4 2 4 3 2 1 1 2 2 5 2 7 6 4 6 12 10 12 10 9 15 8 10 8 8 9 12 10 10 14
3 4 0 2 0 3 0 6 7 3 6 4 4 5 6 5 4 5 5 5 3 3 4 1 2 1 6 2 5 9 19 11 16 13 11 16 17 2 6 6 9 14 9 13 17
1 1 1 1 2 2 3 4 5 5 2 2 2 4 4 5 2 2 2 2 1 4 6 3 5 2 5 5 8 9 9 8 4 4 3 4 3 5 8 13 14 12 11 15 16
Wind_Direction
9 8 8 5 1 2 3 360 2 3 1 358 358 356 1 19 58 56 44 330 318 320 328 282 7 19 32 72 33 301 133 106 97 192 62 13 272 47 346 168 111 46 5 59 145
9 357 0 4 358 360 2 359 357 357 358 350 349 352 350 4 77 58 359 340 330 337 357 9 71 25 76 59 32 33 78 101 37 30 15 6 339 327 267 163 136 162 113 104 163
358 354 1 2 356 357 358 356 354 350 351 345 339 344 344 269 114 5 349 341 333 322 28 329 321 67 77 37 22 53 73 140 88 18 309 314 191 326 288 187 64 354 46 153 175
355 358 358 356 350 352 352 348 351 346 344 337 335 337 347 267 74 336 342 335 330 286 244 92 10 80 87 86 36 121 77 60 109 352 244 293 307 250 278 44 326 298 192 168 187
359 356 345 345 352 349 344 343 345 344 336 335 332 335 8 58 35 326 333 331 330 320 40 60 61 89 91 88 93 77 134 121 121 12 283 267 255 313 260 324 332 37 151 168 187
12 355 344 347 349 343 338 336 339 339 328 330 341 330 48 72 335 328 339 335 21 9 41 30 76 80 88 68 37 69 100 90 27 5 6 324 294 306 150 344 281 161 163 171 190
24 1 353 359 342 336 329 329 333 330 324 333 357 51 61 52 335 339 355 351 350 7 50 38 58 69 133 119 79 121 191 154 37 341 36 321 242 240 48 339 250 208 196 195 202
42 20 18 348 337 330 325 330 332 334 338 345 19 66 74 344 319 2 352 4 6 9 32 19 40 91 33 120 81 30 242 232 69 359 53 305 320 58 29 283 242 231 224 223 211
46 28 357 335 321 330 334 329 354 32 11 1 38 37 49 335 5 341 7 346 317 27 40 35 52 49 32 16 106 29 4 350 94 41 334 346 317 55 328 283 266 240 231 232 221
29 10 354 341 331 332 330 299 357 29 358 90 79 97 29 330 317 333 345 341 12 333 31 33 43 63 34 10 52 0 357 354 338 5 335 308 280 295 274 247 260 254 231 221 217
20 356 345 345 359 12 44 347 21 23 35 54 358 75 324 317 271 3 353 332 1 56 37 34 61 42 15 2 327 303 320 326 352 20 326 348 301 287 291 265 259 247 228 223 224
353 348 343 349 25 27 61 69 39 58 81 36 46 51 351 332 353 10 359 57 44 41 345 56 57 353 308 8 30 25 356 358 288 23 338 334 291 298 334 332 333 323 282 262 235
349 351 355 358 58 40 65 62 351 282 72 38 31 17 341 347 37 350 4 34 70 55 43 89 10 305 203 34 25 49 19 6 323 320 71 326 279 323 59 356 358 2 321 287 276
2 355 4 329 39 357 51 349 340 273 77 354 353 31 342 338 65 342 15 13 53 115 70 70 351 14 58 69 352 32 3 318 341 356 349 353 297 343 358 54 55 43 17 334 310
17 6 21 27 116 54 350 323 289 244 70 337 331 314 345 55 319 31 344 37 62 31 284 39 12 13 45 26 344 25 348 19 40 76 229 4 249 295 353 33 17 12 12 10 332
17 16 7 26 58 29 312 300 239 41 52 339 325 354 9 22 26 310 20 47 90 57 51 72 60 30 355 326 355 315 262 51 104 146 143 24 340 287 27 345 351 359 3 359 349
31 36 47 26 62 326 286 216 43 69 359 333 343 359 21 359 12 11 30 33 24 32 17 8 49 66 2 295 218 339 302 323 321 349 321 58 264 275 1 19 358 345 344 349 344
24 45 38 37 336 297 229 53 65 359 255 6 327 325 44 357 40 7 50 52 50 12 84 12 14 13 352 45 352 31 359 27 301 298 332 146 240 97 350 12 36 27 5 5 355
23 47 53 7 347 282 76 52 157 186 166 296 250 58 6 28 348 21 34 43 10 1 23 342 279 106 35 12 328 96 93 83 103 99 256 308 273 253 138 48 57 27 6 1 355
70 22 18 333 336 45 71 114 146 251 239 243 91 334 24 341 4 33 16 2 58 33 27 133 294 76 121 172 57 3 114 190 109 276 271 227 272 269 242 11 12 1 359 350 350
58 50 77 346 299 46 87 125 193 211 256 359 138 129 337 344 356 4 51 170 215 138 77 144 258 157 197 186 151 144 183 55 327 281 274 295 236 204 150 54 356 338 338 340 333
69 29 31 263 48 46 85 170 187 161 165 154 110 109 180 160 182 233 249 236 179 181 288 126 164 272 342 105 339 305 258 210 228 218 245 319 273 48 90 66 315 322 334 334 331
47 306 41 290 116 88 171 165 213 154 175 167 151 85 134 166 264 225 231 143 183 209 200 168 217 303 234 161 157 230 198 173 95 252 218 262 256 122 100 359 13 321 331 332 329
61 19 341 53 15 117 144 159 163 268 151 151 127 141 158 146 197 208 233 202 183 214 111 187 217 227 249 275 50 243 204 205 201 230 267 236 272 292 355 355 346 341 334 329 328
19 98 215 299 30 102 92 130 144 192 252 200 141 219 173 170 203 223 224 217 199 160 81 207 241 245 262 256 217 256 255 207 205 233 244 272 275 315 353 332 311 302 304 324 336
131 148 116 114 155 134 12 206 181 209 160 223 222 186 186 192 208 198 170 207 207 162 183 151 239 200 284 35 250 265 263 241 230 248 259 274 283 104 299 290 310 315 333 330 332
116 44 275 10 129 119 227 180 210 150 210 344 194 145 224 254 249 348 325 52 101 184 172 189 166 173 252 348 320 266 257 188 176 191 192 237 42 335 335 331 323 325 332 332 322